"Pseudo-MPEC" for A10gzoN

Created 2019 Oct 16 19:07:04 UT using Find_Orb

Click here for an explanation of pseudo-MPECs

 
 Astrometry: 
     A10gzoN  C2019 01 17d3\gDPn0IlN,]_i,Y69dukL5Jl$LQh9.$RUOXuj?XPbdcRXNN2sHF51
     A10gzoN  C2019 01 17wl$Dn=RLx^['T:E3ZOuy8NWfC_VE]IKaGsXSFVk[]Eu9j.ts^s22F51
     A10gzoN  C2019 01 17*xh'8D'OmRjnHGY8ap870\E^V]1hoo@]v2(#aO0+Dj.EpA8W7Pn!F51
     A10gzoN  C2019 01 272n9hQJ0!AstrometrysQ8J=@'%J7dn[rmQ9+c+51,HYje$Ufx`$HF52
     A10gzoN  C2019 01 27#yO\IAGq?T3Jq_($ab$,')am'GK)J$X-'y.RVMqd:A[XZ=]vY;(`F52
     A10gzoN  C2019 01 27DC-%jYbn7AU?tcqPkBn+cOdxm!tLV3;y@tCS]kEXG,d57/X+;u[YF52
     A10gzoN  C2019 10 06.61067907 44 17.34 +75 24 50.5    ~A6J7x18.93oVNEOCPT08
     A10gzoN  C2019 10 06.61403007 44 17.46 +75 24 51.9    ~A6J7 18.98oVNEOCPT08
     A10gzoN  C2019 10 06.62119607 44 17.23 +75 24 56.0    ~A6J7 18.92oVNEOCPT08
     A10gzoN  C2019 10 06.63062907 44 17.08 +75 25 02.4    ~A6J7 18.92oVNEOCPT08
     A10gzoN  C2019 10 07.05302 07 44 14.08 +75 29 24.0    ~A76M 19.2 VVNEOCP033
     A10gzoN  C2019 10 07.05359 07 44 14.13 +75 29 24.5    ~A76M 19.0 VVNEOCP033
     A10gzoN  C2019 10 07.05414 07 44 14.16 +75 29 24.8    ~A76M 19.9 VVNEOCP033
     A10gzoN  C2019 10 07.05479 07 44 14.09 +75 29 25.0    ~A76M 19.2 VVNEOCP033
     A10gzoN KC2019 10 07M(4!TPWAE0@-IWyn52ud2t4icS7[68i@pefZ'`h*qgy`ge[+AnYU595
     A10gzoN KC2019 10 07fH?s$0.:Hw[rb!SC;uN2b'r)lSh4!HCAJb:OLHCuXG3T`NOh`ko2595
     A10gzoN KC2019 10 08t;@=Oues=i51r4khN8*bmD6v2Qh[=w]YYxSPBC;:_O0P=_hG57f3I89
     A10gzoN  C2019 10 08.05406207 44 05.21 +75 39 49.6    ~A8E7 18.5 GVNEOCPC95
     A10gzoN  C2019 10 08.06640007 44 05.06 +75 39 57.4    ~A8E7 18.6 GVNEOCPC95
     A10gzoN  C2019 10 08.07226907 44 05.03 +75 40 00.9    ~A8E7 18.4 GVNEOCPC95
     A10gzoN  C2019 10 08.07854207 44 04.98 +75 40 04.9    ~A8E7 18.7 GVNEOCPC95
     A10gzoN KC2019 10 08BTH`JEC^LV6%`XHM-Q]7IvZ%wo%5[lWi;qn`o,fKBFfUnh(Vs?mBI89
     A10gzoN KC2019 10 08M!9w'(2s:V41JOVo,R;r-d:5t3Ug0Ko1dF8m2fahTrl]SS9UH12%I89
     A10gzoN  C2019 10 08,,8;NHfw4*wLw/88xG1D*G]WV`BrrG$Y_?-b_^vj[AjoZhkgF/4^L01
     A10gzoN  C2019 10 08@jDbp/uOnn\0T@,DU/eF$EhtjU@SiXs3[*sD%Hms_#'YdK5Mk5+jL01
     A10gzoN  C2019 10 08#%5YEh$jZQN-vS0ioF.(03q]$,hIdm^wmSKvw_NKm$X#G_LmG.$ZL01
     A10gzoN  C2019 10 08Z;9f*b*Q'xZ5#W2c+^0cg0U9#![7[wP[l,flh?L#B]5_BMo+D\;yL01
     A10gzoN  C2019 10 08OsV+Tmf+Ch@iO-[=Lredacted;a@HE/.A]#M':BZC;6NJ);U]Po2L01
     A10gzoN 6C2019 10 08]*OcFI1EYsfpQ9wk\WhQn=UQXeXo;M(RX1;X[#nid+];vsLdJt[LI89
     A10gzoN 6C2019 10 08mE^c`1E8CV-!k3X9gH#r+rH$yg(sHby-]%mIJ_lZlH?G(w@goBknI89
     A10gzoN 6C2019 10 08/NBXjANR%-yN1_tkQvq1#kY_hSM7ur,_F(=kIEC(RB0c'+.3'Zx^I89
     A10gzoN KC2019 10 08KWD9dKP:C6yDrp5Bo2$GT5d6tL#U,!n13l$w=Uk`Ej^:s:/_r0:-V01
     A10gzoN KC2019 10 08t*[G-7-.+sAQwsn,d.R/mJ#@36wtxr$Ys1JZs/S;`Q4.]R=i;0m?V01
     A10gzoN KC2019 10 08*1,0)*Ub3NM^cGGp.G*_\Y(xCv=(aIl=,Q=b9+jgCShjJ*xK4odpV01
     A10gzoN KC2019 10 08(mHCe.^huQs7k$'2G[l_*Dd9OhBv7H?V0Wy0YNbSe-1ls3's%fWIZ99
     A10gzoN KC2019 10 08+OcZ=_0Ta)eq`d[@8wM#*^IWqQ*Pqa6=6TVFb=OMhjkI0)G7`+udZ99
     A10gzoN KC2019 10 08cG;Gw2/wiyn%SJpg/w/yiYcLZ3ePQ(wlPtX9LG8t'FE-fmvp\/Y/Z99
     A10gzoN KC2019 10 08.86583907 43 55.89 +75 48 18.7    ~A8Lb 18.5 GVNEOCPJ95
     A10gzoN KC2019 10 08.87000407 43 55.80 +75 48 21.9    ~A8Lb 18.8 GVNEOCPJ95
     A10gzoN KC2019 10 08.95945807 43 54.84 +75 49 18.3    ~A9Aq 19.1 GVNEOCPZ80
     A10gzoN KC2019 10 08.97026407 43 54.68 +75 49 24.5    ~A9Aq 19.0 GVNEOCPZ80
     A10gzoN KC2019 10 10i4v.dMkasu5Q4;S6ZL[AB!76w-r,g[O!W^?^)ZW$ocler!vy6qA7K51
     A10gzoN KC2019 10 10.1i^O]?%8Q=WiF7GJ`0pKhVgMc.[twQ2L4R+L]H)LntMr[]h`=1gK51
     A10gzoN KC2019 10 10sx)F;7\jh3oHTNkIXq,kjg)2(FCo@vx@7j'26*'88(f^+xV+GL*3K51
     A10gzoN KC2019 10 10T+0IK,ExFHYX8=:*0vpn[IJ7TK8ZV%ia5lfvHetngS'%Ku/[qZO,N55
     A10gzoN KC2019 10 10)yC7J5qZ::u*-aU'T$na_t2Z]m+qv7u47Jc4W0HdK(tR\RGx7u0KN55
     A10gzoN KC2019 10 102XV*TG^*[P^_mr$J\Lib/=nkooi`jT1W2A;@hyJ#)bcv5A!qGj3VN55
     A10gzoN KC2019 10 11a(HVwkpBy'yeH:,jm0GwsdM.+NYSrm/Yu1iLW_nVfmBha(2/84,eA71
     A10gzoN KC2019 10 11x3M*-74TH)27UCwJy=qu`3#LB`([_;/CW4Fp4nS+.C\2wT^r:qv@A71
     A10gzoN KC2019 10 119l'uM@j\=R+HH?pUt!d=8P:F4g:+cZx/;s\[d?Rfq]htW^OQ9mH+A71
     A10gzoN KC2019 10 11D=QX*kGLVgj8#.1/N]G1$T`/m.1S,N*2v\YS5CCNF+90YvWO-5)HA71
     A10gzoN KC2019 10 11DP0/)84ZJdq*f$?/GG0,;@e7QnyfwGd'Ws1Mclick1ya\=2@)69lA71
     A10gzoN KC2019 10 11];CVv.mMlmSmW[$+FQymR%LyfkS'Hw]x_*bQsoDQ*#6PTR)G_E'1A71
     A10gzoN "C2019 10 11DCQ6vX8so6Yu+6D)AO,WY;cc.ChSf?C=R[jGK#!hx,XwjyLv0+7MG40
     A10gzoN "C2019 10 11nTPWwd7-[iBK7G)l5[SGXC*?0j188ehI`34wtIgpOXXJS9#UrUV@G40
     A10gzoN "C2019 10 11@QX9pFbf`P!7J$XAS6_1;l%rGQsW-mw.DU!nU=4;miRrn19G!R3xG40
     A10gzoN KC2019 10 11liCbWPUT8S/m!d15YX%ePsvCtRuaHNS7NvS+'b_soHgpfR`Ede0;N55
     A10gzoN KC2019 10 118a8f9h(a[SD2,O9oh2djy[V+u!p:ee,L#r?ET';6Z_Hf4;5VMF'5N55
     A10gzoN KC2019 10 1120W\$CG0o%\i$7p@M*%OJnj`$q:KR)'?9_!q(#'Q\c@:jZ'N:0ybN55
     A10gzoN KC2019 10 129fLS7$6?wOXy:V'kljf,EVAL+[]^hereC7wc=*Uv@tsI,LIF\*7NA71
     A10gzoN KC2019 10 12NW5shVsk]14NbQFF,B@Z;CfBF2$P$-$[BxIxxvi5aW=IbcIo+iO!A71
     A10gzoN KC2019 10 122CX(!.,.3B*eE\=vKR]\Iay30nrTCsf9pEBr-(Zt$e9JGVMb7c2xA71
     A10gzoN KC2019 10 12bycVq=Tk]G;(igjLHPgXT44T;QF%cDAaR3X,XStxwahIc-SPebeSA71
     A10gzoN 9C2019 10 12pZ*9G;[c3Q[s/Q]O#yrb%49DvXQl86/R]$g!R;M;lSyvWRn7:sK-G40
     A10gzoN 9C2019 10 12q!enX8Wdv[QQ;+]1Xx#1QyB)G4xt_+kaqn/)`@m\Uxgp)J';#_T8G40
     A10gzoN 9C2019 10 12I8`764vA7lNu4tBKOtlWfor=[r@@SN3V@Mm0aiRA[xI5N80J=_E/G40
     A10gzoN 9C2019 10 12_LuOFo(O(^o/QKt2F/dpE8./c%Hb4bda]9aRu65Y`DdfI_RpHfm/G40
     A10gzoN 9C2019 10 12NVrS%Zggx(JljgZ7G@61`_J8Us/u@#wjVJxiZ9n$o\_a]%wH@\sXG40
     A10gzoN KC2019 10 12lFggf_k=O!?ySb4UJ8explanation%,Qfi1clQEecke+Y+jJI@%B585
     A10gzoN KC2019 10 12sY_Om:_?`k_PVHB-HaJ9Ur1FvZ@W95C\0Cu*)fi3B8/):JTSP/b/585
     A10gzoN KC2019 10 12VvO2-CGIf)4c%FE-4BywK9HYGRC'nR]E\pRYqVy!jZbbYIP!INMP585
     A10gzoN KC2019 10 12`=()Dw\\BrRNQ#**XNF86.L`_McgTY=;wEDAvZ#r,/G]3+AEZg^J585
     A10gzoN KC2019 10 12P0di7MVl-M-*r+%If]ArlB0Y(Q%s=fI'Q8rXHdeuKIG1OpQ2lIXh585
     A10gzoN KC2019 10 123lp?K2lBy;#*-ubU:N*?QQPH'ln+%\KS7v?)rrxu+J?:dmD*DvZ%585
     A10gzoN KC2019 10 12xbqFmP(e!5WwU`IM9D*DoI93p]=n3RsenE1;O:ZQ)7(8RR@kPJiE585
     A10gzoN KC2019 10 12M(3Cf*kS\??PdPEmDDN=Mfo%,:U0*U]2BZRLL`/k%9/U_Te!(\NHN55
     A10gzoN KC2019 10 12,-/F?PKW=m7I@=/)b4BqD[NxOZ]W(Cd7iZWt,hkS%:MwJV_8SW64N55
     A10gzoN KC2019 10 12_4ihnEQIchlCyf)gW7GLdDPA)Bt:YbSG+A1fG4O5'MiG0VYGW+2!N55
     A10gzoN -C2019 10 14[-_#[S6w-^)NTno!)xj0%YW6j67!uI#00hEI$wVb_t.qW,bA2uyHG40
     A10gzoN -C2019 10 14ei9g?=DOM:=McBJt^PYU$gL6M4W900;OUp?r:HETfLrbvlFKU_l(G40
     A10gzoN  C2019 10 15uspR3ZcN0=]6Uu^U)J'!f$m3^rBCJlAK%Uh-e+EFAA%/$*7poM]SF51
     A10gzoN  C2019 10 15FQ*I0Kti[bQFGvFBPA`F,QLVFy:Syt^r$.(*\LeyWeF-2i]SEwyQF51
     A10gzoN  C2019 10 15N%-NY!\2u@*Ng*1mI0J40WFSnTxlS)t37#ll_$hY/B.PsCO]m=G$F51
     A10gzoN  C2019 10 15!rrS%]m8Np*@Ucb4L^vdIEm`l1bpO=hGpa-T?[J#VYfGl#xnA!m5F51

Station data:
(033) Karl Schwarzschild Observatory, Tautenburg  (N50.980140 E11.711240)
   Germany. 1.3-m Schmidt.
(585) Kyiv comet station  (N50.297989 E30.524620)  Ukraine.
(595) Farra d'Isonzo  (N45.915734 E13.525780)  Italy.  Observers L.
   Bittesini, F. Fabris, E. Pettarin, F. Piani. Measurer E. Pettarin. 0.30-m
   f/4.5 reflector + CCD.
(A71) Stixendorf  (N48.428775 E15.453300)  Austria.
(C95) SATINO Remote Observatory, Haute Provence  (N43.932042 E5.712390)
   France. 0.60-m f/3.2 Newtonian reflector + CCD.
(F51) Pan-STARRS 1, Haleakala  (N20.707235 W156.255910)  US/Hawaii.
   Observers N. Primak, A. Schultz, S. Watters, J. Thiel, T. Goggia. Measurer
   PS1 Science Consortium. 1.8-m Ritchey-Chrétien + CCD.
(F52) Pan-STARRS 2, Haleakala  (N20.707384 W156.255910)  US/Hawaii. 1.8-m
   Ritchey-Chrétien + CCD.
(G40) Slooh.com Canary Islands Observatory  (N28.299720 W16.508260)  Canary
   Islands (Spain).  Observers G. Gašparović, Y. Chen. 0.43-m f/6.8 Corrected
   Dall-Kirkham + CCD.
(I89) iTelescope Observatory, Nerpio  (N38.165287 W2.326100)  Spain.
(J95) Great Shefford  (N51.474969 W1.447003)  UK.  Observer P. Birtwhistle.
   0.40-m f/6.0 Schmidt-Cassegrain + CCD.
(K51) Osservatorio del Celado, Castello Tesino  (N46.029412 E11.657900)
   Italy.
(L01) Višnjan Observatory, Tičan  (N45.290900 E13.749300)  Croatia.
   Observers K. Korlević, E. Pettarin. Measurer E. Pettarin. 1.0-m f/2.9
   reflector + CCD.
(N55) Corona Borealis Observatory, Ngari  (N32.326059 E80.026230)  China.
(T08) ATLAS-MLO, Mauna Loa  (N19.535772 W155.576400)  US/Hawaii.  Observers
   L. Denneau, A. Heinze, H. Weiland, J. Tonry, H. Flewelling, A.
   Fitzsimmons, D. Young, B. Stalder. Measurers L. Denneau, A. Heinze, J.
   Tonry. 0.5-m f/2.0 Schmidt + CCD.
(V01) Mountainville Observatory, Alpine  (N40.448904 W111.760890)  US/Utah.
(Z80) Northolt Branch Observatory  (N51.554661 W0.371920)  UK.  Observer G.
   Wells. Measurer D. Bamberger. 0.25-m f/8 Ritchey-Chrétien + CCD.
(Z99) Clixby Observatory, Cleethorpes  (N53.546062 W0.021260)  UK.

Orbital elements:  A10gzoN
   Perihelion 2021 Mar 9.307607 TT =  7:22:57 (JD 2459282.807607)
Epoch 2019 Oct 15.0 TT = JDT 2458771.5   Ur: 0.3342           AutoNEOCP
M 359.56583976                      (J2000 ecliptic)
n   0.00084911     Peri.  112.48839
a 110.447915       Node   139.68003
e   0.9461752      Incl.  121.94469
P1160.74           H   10.3     G   0.15   q 5.94482690  Q 214.951004
77 of 84 observations 2019 Oct. 6-15; mean residual 0".54
Residuals in arcseconds: 
190117 F51(14.9+  390-)   191008 I89  .88-  .45+    191011 N55  .69-  .30+    
190117 F51(15.0+  390-)   191008 I89  .94-  .10+    191011 N55  .55-  .14+    
190117 F51(15.2+  390-)   191008 I89  .88-  .15+    191011 N55  .12+  .86+    
190127 F52(99.5+  383-)   191008 V01  1.2-  .23+    191012 A71  .41-  .51-    
190127 F52(99.1+  384-)   191008 V01  .88-  .17-    191012 A71  .44-  .44-    
190127 F52( 100+  384-)   191008 V01  1.0-  1.1-    191012 A71  .19-  .09-    
